When you browse on this site, cookies collect data to enhance your experience and personalize the content and advertising you see.
Visit our Privacy Policy to learn more. By continuing to use the site, you agree to this use of cookies and data.
  • en Suisse
  • Liste des pays
  • À 7 jours
  • Température de l'eau
  • Carte météo
  • Widgets météo
  • user-avatar
    Se connecter

    Météo par heure à Darwin

    Ce jour, 30 Mai, Samedi

    Heure Température Précipitation Vent Pression Humidité
    00:00 +23°C° 0 mm 2 m/s 761 mmHg 71%
    01:00 +23°C° 0 mm 2 m/s 761 mmHg 73%
    02:00 +21°C° 0 mm 2 m/s 761 mmHg 74%
    03:00 +22°C° 0 mm 1 m/s 760 mmHg 75%
    04:00 +21°C° 0 mm 2 m/s 761 mmHg 80%
    05:00 +21°C° 0 mm 2 m/s 761 mmHg 84%
    06:00 +21°C° 0 mm 3 m/s 761 mmHg 89%
    07:00 +24°C° 0 mm 3 m/s 761 mmHg 80%
    08:00 +26°C° 0 mm 3 m/s 761 mmHg 72%
    09:00 +28°C° 0 mm 3 m/s 762 mmHg 64%
    10:00 +30°C° 0 mm 3 m/s 761 mmHg 55%
    11:00 +33°C° 0 mm 3 m/s 761 mmHg 47%
    12:00 +34°C° 0 mm 3 m/s 761 mmHg 38%
    13:00 +35°C° 0 mm 3 m/s 760 mmHg 36%
    14:00 +36°C° 0 mm 4 m/s 759 mmHg 34%
    15:00 +36°C° 0 mm 4 m/s 759 mmHg 32%
    16:00 +33°C° 0 mm 4 m/s 759 mmHg 42%
    17:00 +30°C° 0 mm 4 m/s 759 mmHg 52%
    18:00 +28°C° 0 mm 3 m/s 759 mmHg 62%
    19:00 +27°C° 0 mm 3 m/s 760 mmHg 64%
    20:00 +26°C° 0 mm 3 m/s 760 mmHg 65%
    21:00 +25°C° 0 mm 2 m/s 760 mmHg 66%
    22:00 +25°C° 0 mm 2 m/s 761 mmHg 67%
    23:00 +24°C° 0 mm 3 m/s 761 mmHg 68%

    Demain, 31 Mai, Dimanche

    Heure Température Précipitation Vent Pression Humidité
    00:00 +24°C° 0 mm 3 m/s 761 mmHg 69%
    01:00 +22°C° 0 mm 3 m/s 761 mmHg 71%
    02:00 +22°C° 0 mm 3 m/s 761 mmHg 73%
    03:00 +22°C° 0 mm 3 m/s 760 mmHg 75%
    04:00 +22°C° 0 mm 3 m/s 760 mmHg 77%
    05:00 +21°C° 0 mm 3 m/s 761 mmHg 78%
    06:00 +21°C° 0 mm 3 m/s 761 mmHg 80%
    07:00 +24°C° 0 mm 2 m/s 761 mmHg 71%
    08:00 +26°C° 0 mm 2 m/s 761 mmHg 62%
    09:00 +29°C° 0 mm 2 m/s 762 mmHg 54%
    10:00 +31°C° 0 mm 2 m/s 761 mmHg 46%
    11:00 +34°C° 0 mm 2 m/s 761 mmHg 39%
    12:00 +36°C° 0 mm 2 m/s 760 mmHg 32%
    13:00 +36°C° 0 mm 3 m/s 760 mmHg 32%
    14:00 +36°C° 0 mm 3 m/s 759 mmHg 32%
    15:00 +37°C° 0 mm 4 m/s 758 mmHg 32%
    16:00 +34°C° 0 mm 3 m/s 758 mmHg 43%
    17:00 +30°C° 0 mm 3 m/s 758 mmHg 54%
    18:00 +28°C° 0 mm 2 m/s 759 mmHg 65%
    19:00 +27°C° 0 mm 2 m/s 759 mmHg 67%
    20:00 +26°C° 0 mm 2 m/s 760 mmHg 68%
    21:00 +26°C° 0 mm 1 m/s 760 mmHg 70%
    22:00 +25°C° 0 mm 1 m/s 760 mmHg 72%
    23:00 +25°C° 0 mm 1 m/s 760 mmHg 74%

    Après-demain, 1 Juin, Lundi

    Heure Température Précipitation Vent Pression Humidité
    00:00 +24°C° 0 mm 1 m/s 760 mmHg 76%
    01:00 +24°C° 0 mm 2 m/s 760 mmHg 77%
    02:00 +24°C° 0 mm 2 m/s 760 mmHg 77%
    03:00 +24°C° 0 mm 2 m/s 760 mmHg 78%
    04:00 +24°C° 0 mm 2 m/s 760 mmHg 83%
    05:00 +23°C° 0 mm 2 m/s 760 mmHg 88%
    06:00 +23°C° 0 mm 2 m/s 760 mmHg 93%
    07:00 +25°C° 0 mm 3 m/s 761 mmHg 83%
    08:00 +27°C° 0 mm 3 m/s 761 mmHg 73%
    09:00 +29°C° 0 mm 3 m/s 761 mmHg 63%
    10:00 +31°C° 0 mm 3 m/s 761 mmHg 52%
    11:00 +34°C° 0 mm 3 m/s 760 mmHg 41%
    12:00 +37°C° 0 mm 3 m/s 760 mmHg 30%
    13:00 +37°C° 0 mm 3 m/s 759 mmHg 29%
    14:00 +37°C° 0 mm 4 m/s 758 mmHg 29%
    15:00 +38°C° 0 mm 4 m/s 758 mmHg 28%
    16:00 +35°C° 0 mm 3 m/s 758 mmHg 39%
    17:00 +33°C° 0 mm 3 m/s 758 mmHg 49%
    18:00 +29°C° 0 mm 2 m/s 758 mmHg 59%
    19:00 +28°C° 0 mm 2 m/s 759 mmHg 63%
    20:00 +27°C° 0 mm 2 m/s 759 mmHg 67%
    21:00 +26°C° 0 mm 2 m/s 760 mmHg 70%
    22:00 +26°C° 0 mm 1 m/s 760 mmHg 72%
    23:00 +25°C° 0 mm 1 m/s 760 mmHg 74%

    2 Juin, Mardi

    Heure Température Précipitation Vent Pression Humidité
    00:00 +25°C° 0 mm 1 m/s 760 mmHg 76%
    01:00 +25°C° 0 mm 1 m/s 760 mmHg 78%
    02:00 +24°C° 0 mm 1 m/s 760 mmHg 80%
    03:00 +24°C° 0 mm 2 m/s 760 mmHg 82%
    04:00 +24°C° 0 mm 2 m/s 760 mmHg 84%
    05:00 +22°C° 0 mm 3 m/s 760 mmHg 85%
    06:00 +22°C° 0 mm 3 m/s 760 mmHg 86%
    07:00 +25°C° 0 mm 4 m/s 761 mmHg 73%
    08:00 +27°C° 0 mm 4 m/s 761 mmHg 61%
    09:00 +29°C° 0 mm 5 m/s 761 mmHg 48%
    10:00 +30°C° 0 mm 5 m/s 761 mmHg 41%
    11:00 +33°C° 0 mm 5 m/s 760 mmHg 35%
    12:00 +35°C° 0 mm 5 m/s 760 mmHg 28%
    13:00 +35°C° 0 mm 5 m/s 759 mmHg 27%
    14:00 +36°C° 0 mm 4 m/s 759 mmHg 26%
    15:00 +36°C° 0 mm 3 m/s 758 mmHg 25%
    16:00 +35°C° 0 mm 3 m/s 758 mmHg 29%
    17:00 +32°C° 0 mm 2 m/s 758 mmHg 33%
    18:00 +30°C° 0 mm 2 m/s 759 mmHg 37%
    19:00 +29°C° 0 mm 2 m/s 759 mmHg 39%
    20:00 +27°C° 0 mm 3 m/s 760 mmHg 40%
    21:00 +26°C° 0 mm 3 m/s 760 mmHg 41%
    22:00 +26°C° 0 mm 5 m/s 761 mmHg 43%
    23:00 +24°C° 0 mm 6 m/s 761 mmHg 44%

    3 Juin, Mercredi

    Heure Température Précipitation Vent Pression Humidité
    00:00 +24°C° 0 mm 7 m/s 761 mmHg 45%
    01:00 +23°C° 0 mm 7 m/s 761 mmHg 48%
    02:00 +22°C° 0 mm 7 m/s 761 mmHg 51%
    03:00 +22°C° 0 mm 7 m/s 761 mmHg 53%
    04:00 +21°C° 0 mm 7 m/s 761 mmHg 57%
    05:00 +20°C° 0 mm 7 m/s 761 mmHg 61%
    06:00 +18°C° 0 mm 7 m/s 762 mmHg 65%
    07:00 +21°C° 0 mm 7 m/s 762 mmHg 58%
    08:00 +23°C° 0 mm 8 m/s 762 mmHg 52%
    09:00 +24°C° 0 mm 8 m/s 762 mmHg 46%
    10:00 +27°C° 0 mm 7 m/s 762 mmHg 40%
    11:00 +29°C° 0 mm 7 m/s 761 mmHg 34%
    12:00 +32°C° 0 mm 7 m/s 761 mmHg 28%
    13:00 +32°C° 0 mm 6 m/s 760 mmHg 27%
    14:00 +32°C° 0 mm 5 m/s 759 mmHg 25%
    15:00 +33°C° 0 mm 4 m/s 759 mmHg 24%
    16:00 +30°C° 0 mm 4 m/s 759 mmHg 26%
    17:00 +28°C° 0 mm 3 m/s 759 mmHg 29%
    18:00 +27°C° 0 mm 3 m/s 759 mmHg 31%
    19:00 +25°C° 0 mm 3 m/s 760 mmHg 32%
    20:00 +23°C° 0 mm 4 m/s 760 mmHg 33%
    21:00 +22°C° 0 mm 5 m/s 761 mmHg 34%
    22:00 +21°C° 0 mm 5 m/s 761 mmHg 35%
    23:00 +21°C° 0 mm 6 m/s 761 mmHg 36%

    4 Juin, Jeudi

    Heure Température Précipitation Vent Pression Humidité
    00:00 +21°C° 0 mm 7 m/s 761 mmHg 37%
    01:00 +20°C° 0 mm 7 m/s 761 mmHg 43%
    02:00 +20°C° 0 mm 7 m/s 761 mmHg 48%
    03:00 +18°C° 0 mm 7 m/s 761 mmHg 53%
    04:00 +18°C° 0 mm 7 m/s 761 mmHg 59%
    05:00 +17°C° 0 mm 7 m/s 761 mmHg 65%
    06:00 +17°C° 0 mm 7 m/s 761 mmHg 70%
    07:00 +18°C° 0 mm 7 m/s 761 mmHg 65%
    08:00 +21°C° 0 mm 7 m/s 762 mmHg 60%
    09:00 +22°C° 0 mm 7 m/s 762 mmHg 55%
    10:00 +24°C° 0 mm 6 m/s 762 mmHg 47%
    11:00 +28°C° 0 mm 6 m/s 761 mmHg 39%
    12:00 +30°C° 0 mm 5 m/s 761 mmHg 32%
    13:00 +30°C° 0 mm 4 m/s 760 mmHg 30%
    14:00 +32°C° 0 mm 4 m/s 759 mmHg 28%
    15:00 +33°C° 0 mm 3 m/s 759 mmHg 26%
    16:00 +30°C° 0 mm 2 m/s 759 mmHg 29%
    17:00 +28°C° 0 mm 2 m/s 759 mmHg 33%
    18:00 +26°C° 0 mm 1 m/s 759 mmHg 37%
    19:00 +25°C° 0 mm 2 m/s 760 mmHg 37%
    20:00 +23°C° 0 mm 2 m/s 760 mmHg 38%
    21:00 +21°C° 0 mm 3 m/s 761 mmHg 39%
    22:00 +21°C° 0 mm 4 m/s 761 mmHg 41%
    23:00 +20°C° 0 mm 5 m/s 761 mmHg 42%
    Voir plus